Location: *
(6.0000°S, 32.3997°W)
Time: 16:58:47
(UTC+00:00)

NOAA 11 - Pass Details

Date: 01 April 2020
Orbit: 833 x 849 km, 98.4° (Epoch: 26 May)

Event Time Altitude Azimuth Distance (km) Brightness Sun altitude
Rises 21:18:04 0° 172° (S) 3,384 7.2 -16.6°
Reaches altitude 10° 21:20:26 10° 174° (S) 2,446 6.5 -17.2°
Maximum altitude 21:25:50 71° 257° (WSW) 878 4.4 -18.5°
Drops below altitude 10° 21:31:13 10° 341° (NNW) 2,434 6.9 -19.9°
Sets 21:33:34 0° 343° (NNW) 3,366 7.6 -20.4°
